This demonstration page uses our WeatherBlox Daily Observations layout. Learn more.

Left ArrowRight Arrow

Hourly Observations for May 9, 2020

Temp ( °F °C ) Dew Point ( °F °C ) Humidity (%) Winds ( mph kmh ) Pressure ( in mb ) Visibility ( mi km ) Precip ( " mm )
12:51 am 00:51 Clear 76 24.4 37 2.8 24 24 E 16 26 29.83 1010 10 16.0934 0 0
1:51 am 01:51 Clear 74 23.3 32 0 21 21 E 13 20 29.82 1010 10 16.0934 0 0
2:51 am 02:51 Clear 73 22.8 30 -1.1 20 20 E 10 17 29.82 1010 10 16.0934 0 0
3:51 am 03:51 Clear 71 21.7 30 -1.1 22 22 ESE 7 11 29.83 1010 10 16.0934 0 0
4:51 am 04:51 Clear 67 19.4 29 -1.7 24 24 SE 9 15 29.86 1011 10 16.0934 0 0
5:51 am 05:51 Sunny 67 19.4 29 -1.7 24 24 SSE 8 13 29.88 1012 10 16.0934 0 0
6:51 am 06:51 Sunny 69 20.6 34 1.1 27 27 SSE 12 19 29.9 1013 10 16.0934 0 0
7:51 am 07:51 Sunny 74 23.3 36 2.2 25 25 SSE 10 17 29.91 1013 10 16.0934 0 0
8:51 am 08:51 Sunny 77 25 34 1.1 21 21 SSE 8 13 29.9 1013 10 16.0934 0 0
9:51 am 09:51 Sunny 81 27.2 34 1.1 18 18 SSE 6 9 29.89 1012 10 16.0934 0 0
10:51 am 10:51 Sunny 83 28.3 37 2.8 19 19 VRB 3 6 29.88 1012 10 16.0934 0 0
11:51 am 11:51 Sunny 89 31.7 39 3.9 17 17 undefined N/A 29.85 1011 10 16.0934 0 0
12:51 pm 12:51 Sunny 93 33.9 35 1.7 13 13 NNW 9 15 29.8 1009 10 16.0934 0 0
1:51 pm 13:51 Sunny 94 34.4 34 1.1 12 12 NW 8 13 29.78 1008 10 16.0934 0 0
2:51 pm 14:51 Sunny 95 35 35 1.7 12 12 WNW 16 26 29.75 1008 10 16.0934 0 0
3:51 pm 15:51 Sunny 95 35 35 1.7 12 12 W 18 30 29.73 1007 10 16.0934 0 0
4:51 pm 16:51 Sunny 93 33.9 33 0.6 12 12 WNW 10 17 29.73 1007 10 16.0934 0 0
5:51 pm 17:51 Sunny 92 33.3 32 0 12 12 WNW 13 20 29.73 1007 10 16.0934 0 0
6:51 pm 18:51 Sunny 89 31.7 35 1.7 15 15 NW 12 19 29.76 1008 10 16.0934 0 0
7:51 pm 19:51 Clear 86 30 33 0.6 15 15 NE 15 24 29.79 1009 10 16.0934 0 0
8:51 pm 20:51 Cloudy 83 28.3 38 3.3 20 20 ESE 9 15 29.82 1010 10 16.0934 0 0
9:51 pm 21:51 Partly Cloudy 82 27.8 37 2.8 20 20 Calm 29.83 1010 10 16.0934 0 0
10:51 pm 22:51 Clear 79 26.1 40 4.4 25 25 SW 3 6 29.83 1010 10 16.0934 0 0
11:51 pm 23:51 Clear 76 24.4 39 3.9 26 26 NNE 5 7 29.83 1010 10 16.0934 0 0

Powered by AerisWeather